Location: Campolattaro
(41.2833°N, 14.7333°E)
Time: 00:22:59
(UTC+00:00)

Cosmos 2341 Rocket - Pass Details

Date: 19 May 2025
Orbit: 966 x 1004 km, 82.9° (Epoch: 23 June)

Event Time Altitude Azimuth Distance (km) Brightness Sun altitude
Rises 19:54:35 0° 357° (N) 3,688 7.8 -15.5°
Reaches altitude 10° 19:57:14 10° 4° (N) 2,732 6.9 -15.9°
Maximum altitude 20:03:15 48° 78° (ENE) 1,250 4.4 -16.6°
Enters shadow 20:06:24 27° 137° (SE) 1,785 4.8 -17.0°
